When you browse on this site, cookies collect data to enhance your experience and personalize the content and advertising you see.
Visit our Privacy Policy to learn more. By continuing to use the site, you agree to this use of cookies and data.
  • En España
  • Lista de países
  • Para 7 días
  • Temperatura del agua
  • El tiempo en el mapa
  • Informadores
  • user-avatar
    Iniciar sesión

    Tiempo cada hora Sarajevo

    Hoy, 5 Abril, Domingo

    Tiempo Temperatura Precipitaciones Viento Presión Humedad
    00:00 +3°C° 0 mm 5 mps 688 mmHg 86%
    01:00 +3°C° 0 mm 6 mps 688 mmHg 85%
    02:00 +2°C° 0 mm 6 mps 688 mmHg 86%
    03:00 +2°C° 0 mm 6 mps 688 mmHg 87%
    04:00 +2°C° 0 mm 6 mps 688 mmHg 88%
    05:00 +2°C° 0 mm 6 mps 688 mmHg 85%
    06:00 +3°C° 0 mm 6 mps 689 mmHg 83%
    07:00 +3°C° 0 mm 6 mps 689 mmHg 77%
    08:00 +4°C° 0 mm 7 mps 689 mmHg 71%
    09:00 +5°C° 0 mm 7 mps 690 mmHg 64%
    10:00 +6°C° 0 mm 8 mps 690 mmHg 58%
    11:00 +7°C° 0 mm 8 mps 690 mmHg 54%
    12:00 +9°C° 0 mm 8 mps 691 mmHg 51%
    13:00 +10°C° 0 mm 8 mps 691 mmHg 48%
    14:00 +9°C° 0 mm 8 mps 690 mmHg 50%
    15:00 +9°C° 0 mm 8 mps 690 mmHg 51%
    16:00 +8°C° 0 mm 7 mps 690 mmHg 53%
    17:00 +6°C° 0 mm 7 mps 690 mmHg 60%
    18:00 +5°C° 0 mm 6 mps 691 mmHg 66%
    19:00 +5°C° 0 mm 5 mps 691 mmHg 73%
    20:00 +3°C° 0 mm 5 mps 691 mmHg 76%
    21:00 +3°C° 0 mm 4 mps 691 mmHg 79%
    22:00 +3°C° 0 mm 3 mps 691 mmHg 82%
    23:00 +2°C° 0 mm 3 mps 692 mmHg 82%

    Mañana, 6 Abril, Lunes

    Tiempo Temperatura Precipitaciones Viento Presión Humedad
    00:00 +2°C° 0 mm 3 mps 692 mmHg 83%
    01:00 +2°C° 0 mm 2 mps 692 mmHg 84%
    02:00 +2°C° 0 mm 2 mps 692 mmHg 83%
    03:00 +2°C° 0 mm 2 mps 692 mmHg 83%
    04:00 +1°C° 0 mm 2 mps 692 mmHg 83%
    05:00 +2°C° 0 mm 2 mps 692 mmHg 79%
    06:00 +3°C° 0 mm 2 mps 693 mmHg 76%
    07:00 +4°C° 0 mm 2 mps 693 mmHg 72%
    08:00 +6°C° 0 mm 2 mps 694 mmHg 63%
    09:00 +8°C° 0 mm 2 mps 694 mmHg 54%
    10:00 +10°C° 0 mm 2 mps 695 mmHg 44%
    11:00 +12°C° 0 mm 2 mps 695 mmHg 42%
    12:00 +13°C° 0 mm 2 mps 695 mmHg 40%
    13:00 +14°C° 0 mm 2 mps 695 mmHg 38%
    14:00 +14°C° 0 mm 2 mps 695 mmHg 40%
    15:00 +12°C° 0 mm 3 mps 695 mmHg 42%
    16:00 +12°C° 0 mm 3 mps 695 mmHg 45%
    17:00 +10°C° 0 mm 2 mps 694 mmHg 52%
    18:00 +8°C° 0 mm 2 mps 694 mmHg 60%
    19:00 +5°C° 0 mm 2 mps 694 mmHg 68%
    20:00 +5°C° 0 mm 2 mps 694 mmHg 70%
    21:00 +4°C° 0 mm 2 mps 695 mmHg 72%
    22:00 +3°C° 0 mm 2 mps 695 mmHg 74%
    23:00 +2°C° 0 mm 2 mps 695 mmHg 76%

    Pasado mañana, 7 Abril, Martes

    Tiempo Temperatura Precipitaciones Viento Presión Humedad
    00:00 +2°C° 0 mm 2 mps 695 mmHg 78%
    01:00 +1°C° 0 mm 2 mps 694 mmHg 79%
    02:00 +1°C° 0 mm 2 mps 694 mmHg 79%
    03:00 +1°C° 0 mm 2 mps 694 mmHg 79%
    04:00 +1°C° 0 mm 2 mps 695 mmHg 78%
    05:00 +2°C° 0 mm 2 mps 695 mmHg 73%
    06:00 +3°C° 0 mm 2 mps 695 mmHg 67%
    07:00 +4°C° 0 mm 2 mps 695 mmHg 61%
    08:00 +6°C° 0 mm 2 mps 696 mmHg 53%
    09:00 +8°C° 0 mm 2 mps 696 mmHg 45%
    10:00 +12°C° 0 mm 2 mps 697 mmHg 37%
    11:00 +13°C° 0 mm 2 mps 697 mmHg 34%
    12:00 +14°C° 0 mm 2 mps 697 mmHg 31%
    13:00 +15°C° 0 mm 2 mps 697 mmHg 28%
    14:00 +14°C° 0 mm 3 mps 697 mmHg 29%
    15:00 +14°C° 0 mm 3 mps 697 mmHg 30%
    16:00 +13°C° 0 mm 3 mps 696 mmHg 31%
    17:00 +11°C° 0 mm 3 mps 696 mmHg 38%
    18:00 +8°C° 0 mm 2 mps 695 mmHg 46%
    19:00 +6°C° 0 mm 2 mps 695 mmHg 54%
    20:00 +5°C° 0 mm 2 mps 695 mmHg 55%
    21:00 +4°C° 0 mm 2 mps 695 mmHg 57%
    22:00 +3°C° 0 mm 2 mps 696 mmHg 59%
    23:00 +2°C° 0 mm 2 mps 695 mmHg 60%

    8 Abril, Miércoles

    Tiempo Temperatura Precipitaciones Viento Presión Humedad
    00:00 +2°C° 0 mm 2 mps 695 mmHg 60%
    01:00 +1°C° 0 mm 2 mps 695 mmHg 61%
    02:00 +1°C° 0 mm 2 mps 695 mmHg 63%
    03:00 +1°C° 0 mm 2 mps 695 mmHg 64%
    04:00 +1°C° 0 mm 2 mps 694 mmHg 65%
    05:00 +2°C° 0 mm 2 mps 694 mmHg 62%
    06:00 +3°C° 0 mm 2 mps 695 mmHg 58%
    07:00 +4°C° 0 mm 2 mps 695 mmHg 55%
    08:00 +6°C° 0 mm 2 mps 695 mmHg 48%
    09:00 +8°C° 0 mm 2 mps 695 mmHg 41%
    10:00 +10°C° 0 mm 2 mps 695 mmHg 34%
    11:00 +12°C° 0 mm 2 mps 695 mmHg 33%
    12:00 +13°C° 0 mm 2 mps 694 mmHg 32%
    13:00 +14°C° 0 mm 2 mps 694 mmHg 31%
    14:00 +14°C° 0 mm 2 mps 694 mmHg 33%
    15:00 +14°C° 0 mm 2 mps 694 mmHg 35%
    16:00 +14°C° 0 mm 2 mps 693 mmHg 37%
    17:00 +10°C° 0 mm 2 mps 693 mmHg 45%
    18:00 +8°C° 0 mm 2 mps 692 mmHg 53%
    19:00 +7°C° 0 mm 1 mps 692 mmHg 61%
    20:00 +6°C° 0 mm 1 mps 692 mmHg 63%
    21:00 +5°C° 0 mm 1 mps 692 mmHg 65%
    22:00 +5°C° 0 mm 1 mps 692 mmHg 67%
    23:00 +4°C° 0 mm 1 mps 692 mmHg 68%

    9 Abril, Jueves

    Tiempo Temperatura Precipitaciones Viento Presión Humedad
    00:00 +4°C° 0 mm 1 mps 692 mmHg 70%
    01:00 +3°C° 0 mm 1 mps 691 mmHg 71%
    02:00 +3°C° 0 mm 1 mps 691 mmHg 71%
    03:00 +3°C° 0 mm 1 mps 691 mmHg 71%
    04:00 +3°C° 0 mm 1 mps 691 mmHg 70%
    05:00 +4°C° 0 mm 1 mps 691 mmHg 66%
    06:00 +5°C° 0 mm 1 mps 691 mmHg 62%
    07:00 +7°C° 0 mm 1 mps 692 mmHg 57%
    08:00 +9°C° 0 mm 1 mps 692 mmHg 50%
    09:00 +12°C° 0 mm 1 mps 692 mmHg 43%
    10:00 +14°C° 0 mm 1 mps 692 mmHg 35%
    11:00 +15°C° 0 mm 1 mps 692 mmHg 34%
    12:00 +16°C° 0 mm 1 mps 692 mmHg 33%
    13:00 +18°C° 0 mm 1 mps 692 mmHg 31%
    14:00 +18°C° 0 mm 1 mps 692 mmHg 33%
    15:00 +16°C° 0 mm 1 mps 691 mmHg 34%
    16:00 +16°C° 0 mm 1 mps 691 mmHg 36%
    17:00 +14°C° 0 mm 1 mps 691 mmHg 46%
    18:00 +11°C° 0 mm 1 mps 690 mmHg 56%
    19:00 +9°C° 0 mm 1 mps 690 mmHg 66%
    20:00 +8°C° 0 mm 1 mps 690 mmHg 68%
    21:00 +8°C° 0 mm 1 mps 690 mmHg 70%
    22:00 +7°C° 0 mm 1 mps 690 mmHg 72%
    23:00 +7°C° 0 mm 1 mps 690 mmHg 74%

    10 Abril, Viernes

    Tiempo Temperatura Precipitaciones Viento Presión Humedad
    00:00 +6°C° 0 mm 1 mps 690 mmHg 75%
    01:00 +6°C° 0 mm 1 mps 690 mmHg 77%
    02:00 +6°C° 0 mm 1 mps 690 mmHg 77%
    03:00 +5°C° 0 mm 1 mps 690 mmHg 78%
    04:00 +5°C° 0 mm 1 mps 690 mmHg 79%
    05:00 +6°C° 0 mm 1 mps 690 mmHg 76%
    06:00 +6°C° 0 mm 2 mps 691 mmHg 73%
    07:00 +7°C° 0 mm 2 mps 691 mmHg 70%
    08:00 +9°C° 0 mm 2 mps 691 mmHg 62%
    09:00 +12°C° 0 mm 2 mps 692 mmHg 53%
    10:00 +13°C° 0 mm 3 mps 692 mmHg 44%
    11:00 +14°C° 0 mm 3 mps 692 mmHg 43%
    12:00 +16°C° 0 mm 3 mps 692 mmHg 41%
    13:00 +17°C° 0 mm 3 mps 692 mmHg 39%
    14:00 +16°C° 0 mm 3 mps 692 mmHg 41%
    15:00 +16°C° 0 mm 3 mps 691 mmHg 42%
    16:00 +16°C° 0 mm 3 mps 691 mmHg 43%
    17:00 +13°C° 0 mm 3 mps 691 mmHg 53%
    18:00 +11°C° 0 mm 3 mps 691 mmHg 63%
    19:00 +9°C° 0 mm 2 mps 690 mmHg 73%
    20:00 +8°C° 0 mm 2 mps 691 mmHg 76%
    21:00 +8°C° 0 mm 2 mps 691 mmHg 80%
    22:00 +7°C° 0 mm 2 mps 691 mmHg 83%
    23:00 +8°C° 0 mm 1 mps 691 mmHg 84%
    Mostrar más